EW3904 Weather Reports


Display with metric or nautical units.
time (UTC)temp
F
wind
direction
speed
MPH
gust
MPH
rain 1hr
in
rain 24hr
in
rain mn
in
humidity
%
barometer
mb
20260831191252 91 60 4.0 10.0 0.00 0.00 0.00 54 1021.9
20260831185252 90 63 4.0 8.0 0.00 0.00 0.00 56 1022.0
20260831184252 90 67 7.0 7.0 0.00 0.00 0.00 56 1022.0
20260831182252 89 279 2.0 5.0 0.00 0.00 0.00 58 1022.2
20260831181251 89 321 1.0 3.0 0.00 0.00 0.00 58 1022.4
20260831180251 89 77 3.0 8.0 0.00 0.00 0.00 57 1022.6
20260831175251 88 53 1.0 5.0 0.00 0.00 0.00 58 1022.5
20260831174251 88 57 5.0 9.0 0.00 0.00 0.00 62 1022.8
20260831173251 87 44 4.0 4.0 0.00 0.00 0.00 63 1022.8
20260831172251 86 350 2.0 7.0 0.00 0.00 0.00 64 1022.9
20260831171251 87 311 1.0 7.0 0.00 0.00 0.00 62 1022.9
20260831170251 87 75 4.0 8.0 0.00 0.00 0.00 64 1023.0
20260831165251 86 138 4.0 9.0 0.00 0.00 0.00 65 1023.1
20260831163251 85 132 0.0 4.0 0.00 0.00 0.00 68 1023.2
20260831161251 86 32 4.0 4.0 0.00 0.00 0.00 68 1023.4
20260831160251 85 141 3.0 4.0 0.00 0.00 0.00 69 1023.4
20260831155251 85 176 1.0 7.0 0.00 0.00 0.00 69 1023.5
20260831153250 85 355 0.0 4.0 0.00 0.00 0.00 69 1023.6
20260831152251 84 67 2.0 4.0 0.00 0.00 0.00 72 1023.7
20260831151250 84 35 1.0 4.0 0.00 0.00 0.00 72 1023.6
20260831150250 84 261 2.0 3.0 0.00 0.00 0.00 74 1023.6
20260831145250 83 42 2.0 4.0 0.00 0.00 0.00 76 1023.5
20260831144250 82 223 1.0 4.0 0.00 0.00 0.00 76 1023.4
20260831143250 82 84 3.0 4.0 0.00 0.00 0.00 79 1023.3
20260831142250 83 360 1.0 3.0 0.00 0.00 0.00 79 1023.3
20260831141250 82 40 2.0 2.0 0.00 0.00 0.00 79 1023.3
20260831135249 80 29 0.0 2.0 0.00 0.00 0.00 85 1023.4
20260831134249 80 23 2.0 3.0 0.00 0.00 0.00 85 1023.4
20260831133250 79 300 0.0 3.0 0.00 0.00 0.00 85 1023.4
20260831132249 79 304 1.0 2.0 0.00 0.00 0.00 86 1023.5
20260831131250 78 45 1.0 2.0 0.00 0.00 0.00 87 1023.5
20260831130249 77 313 0.0 1.0 0.00 0.00 0.00 87 1023.4
20260831124249 75 70 1.0 4.0 0.00 0.00 0.00 91 1023.4
20260831123249 74 69 2.0 2.0 0.00 0.00 0.00 92 1023.2
20260831122249 73 178 0.0 0.0 0.00 0.00 0.00 93 1023.3
20260831121249 72 178 0.0 0.0 0.00 0.00 0.00 95 1023.0
20260831120249 71 178 0.0 0.0 0.00 0.00 0.00 95 1022.9
20260831115248 71 178 0.0 0.0 0.00 0.00 0.00 95 1023.0
20260831114248 70 178 0.0 0.0 0.00 0.00 0.00 95 1022.8
20260831112249 70 178 0.0 0.0 0.00 0.00 0.00 95 1022.7
20260831111249 70 178 0.0 0.0 0.00 0.00 0.00 95 1022.6
20260831110248 70 178 0.0 0.0 0.00 0.00 0.00 95 1022.5
20260831105248 70 178 0.0 0.0 0.00 0.00 0.00 95 1022.5
20260831104248 70 178 0.0 0.0 0.00 0.00 0.00 95 1022.4
20260831102248 70 178 0.0 0.0 0.00 0.00 0.00 95 1022.4
20260831101248 70 178 0.0 0.0 0.00 0.00 0.00 95 1022.2
20260831100248 70 178 0.0 0.0 0.00 0.00 0.00 94 1022.2
20260831095248 70 178 0.0 0.0 0.00 0.00 0.00 95 1022.2
20260831094248 70 178 0.0 0.0 0.00 0.00 0.00 94 1022.1
20260831093248 70 178 0.0 0.0 0.00 0.00 0.00 94 1022.1
20260831092247 70 178 0.0 0.0 0.00 0.00 0.00 94 1022.2
20260831091247 70 178 0.0 0.0 0.00 0.00 0.00 94 1022.0
20260831090247 70 178 0.0 0.0 0.00 0.00 0.00 94 1021.9
20260831083247 71 178 0.0 0.0 0.00 0.00 0.00 94 1021.7
20260831082247 71 178 0.0 0.0 0.00 0.00 0.00 94 1021.5
20260831081247 71 178 0.0 0.0 0.00 0.00 0.00 94 1021.7
20260831080247 71 178 0.0 0.0 0.00 0.00 0.00 93 1021.7
20260831073247 71 178 0.0 0.0 0.00 0.00 0.00 93 1021.5
20260831072247 71 178 0.0 0.0 0.00 0.00 0.00 93 1021.5
20260831071247 71 178 0.0 0.0 0.00 0.00 0.00 93 1021.5
20260831070247 71 178 0.0 0.0 0.00 0.00 0.00 93 1021.5
20260831062246 72 178 0.0 0.0 0.00 0.00 0.00 92 1021.5
20260831061246 72 178 0.0 0.0 0.00 0.00 0.00 92 1021.7
20260831060246 72 178 0.0 0.0 0.00 0.00 0.00 92 1021.8
20260831055246 72 178 0.0 0.0 0.00 0.00 0.00 92 1021.6
20260831054246 72 178 0.0 0.0 0.00 0.00 0.00 92 1021.6
20260831052246 73 178 0.0 0.0 0.00 0.00 0.00 91 1021.7
20260831050246 73 178 0.0 0.0 0.00 0.00 0.00 91 1021.8
20260831045246 73 178 0.0 0.0 0.00 0.00 0.00 91 1021.8
20260831044245 73 178 0.0 0.0 0.00 0.00 0.00 90 1021.7
20260831040245 74 178 0.0 0.0 0.00 0.00 0.00 90 1021.8
20260831035245 74 178 0.0 0.0 0.00 0.00 0.00 90 1021.8
20260831033245 74 178 0.0 0.0 0.00 0.00 0.00 90 1021.9
20260831032245 74 178 0.0 0.0 0.00 0.00 0.00 90 1021.8
20260831031245 75 178 0.0 0.0 0.00 0.00 0.00 89 1021.9
20260831030244 75 178 0.0 1.0 0.00 0.00 0.00 88 1021.9
20260831025244 75 178 0.0 1.0 0.00 0.00 0.00 88 1021.8
20260831024244 75 178 0.0 0.0 0.00 0.00 0.00 88 1021.8
20260831023245 75 178 0.0 0.0 0.00 0.00 0.00 87 1021.8
20260831022245 75 178 0.0 0.0 0.00 0.00 0.00 86 1021.7
20260831020244 77 178 0.0 1.0 0.00 0.00 0.00 84 1021.8
20260831015244 77 178 0.0 0.0 0.00 0.00 0.00 85 1021.7
20260831014244 77 178 0.0 0.0 0.00 0.00 0.00 83 1021.8
20260831013244 77 178 0.0 0.0 0.00 0.00 0.00 82 1021.7
20260831012244 78 178 0.0 0.0 0.00 0.00 0.00 81 1021.6
20260831011244 78 178 0.0 2.0 0.00 0.00 0.00 80 1021.4
20260831010244 79 178 0.0 0.0 0.00 0.00 0.00 79 1021.5
20260831004243 80 178 0.0 1.0 0.00 0.00 0.00 76 1021.3
20260831003243 81 178 0.0 3.0 0.00 0.00 0.00 75 1021.2
20260831002243 81 86 0.0 0.0 0.00 0.00 0.00 75 1021.0
20260831001243 81 86 0.0 0.0 0.00 0.00 0.00 75 1020.9
20260831000243 82 86 0.0 0.0 0.00 0.00 0.00 73 1020.8
20260830235243 83 86 0.0 0.0 0.00 0.00 0.00 71 1020.7
20260830234243 85 86 0.0 0.0 0.00 0.00 0.00 67 1020.6
20260830233243 86 86 0.0 2.0 0.00 0.00 0.00 66 1020.7
20260830232242 87 78 1.0 1.0 0.00 0.00 0.00 62 1020.7
20260830231242 87 83 0.0 2.0 0.00 0.00 0.00 61 1020.7
20260830230243 88 132 1.0 2.0 0.00 0.00 0.00 57 1020.6
20260830225243 88 55 2.0 3.0 0.00 0.00 0.00 60 1020.6
20260830222242 88 77 4.0 6.0 0.00 0.00 0.00 57 1020.6
20260830221243 88 117 2.0 7.0 0.00 0.00 0.00 57 1020.7
20260830220242 88 68 3.0 6.0 0.00 0.00 0.00 55 1020.7
20260830215242 88 80 2.0 7.0 0.00 0.00 0.00 57 1020.8
20260830214242 88 136 0.0 5.0 0.00 0.00 0.00 58 1020.8
20260830213242 88 90 2.0 6.0 0.00 0.00 0.00 60 1020.8
20260830212242 88 46 1.0 6.0 0.00 0.00 0.00 58 1020.9
20260830211242 87 74 1.0 4.0 0.00 0.00 0.00 65 1021.0
20260830210242 86 128 0.0 2.0 0.00 0.00 0.00 65 1021.0
20260830205242 85 140 1.0 3.0 0.00 0.00 0.00 65 1021.1
20260830204242 86 10 4.0 4.0 0.00 0.00 0.00 65 1021.0
20260830202242 86 68 1.0 4.0 0.00 0.00 0.00 66 1021.4
20260830201242 86 27 2.0 10.0 0.00 0.00 0.00 62 1021.6
20260830200242 87 90 4.0 9.0 0.00 0.00 0.00 61 1021.6
20260830195242 87 45 3.0 6.0 0.00 0.00 0.00 59 1021.5
20260830194241 86 190 1.0 7.0 0.00 0.00 0.00 62 1021.8
20260830192241 88 62 4.0 7.0 0.00 0.00 0.00 63 1022.0